Weather History for PADU - January, 2014

Change the Weather History Date:

Thursday, January 16, 2014

  Actual Average Record
Temperature  
Mean Temperature 34 °F -  
Max Temperature 35 °F 35 °F 44 °F (2002)
Min Temperature 32 °F 23 °F 11 °F (1989)
Degree Days  
Heating Degree Days 32    
Moisture  
Dew Point 30 °F    
Average Humidity 86    
Maximum Humidity 96    
Minimum Humidity 81    
Precipitation  
Precipitation 0.37 in - - ()
Sea Level Pressure  
Sea Level Pressure 29.07 in    
Wind  
Wind Speed 21 mph (North)    
Max Wind Speed 38 mph    
Max Gust Speed 61 mph    
Visibility 2 miles    
Events Fog , Rain , Snow    
Averages and records for this station are not official NWS values.
T = Trace of Precipitation, MM = Missing Value Source: NWS Daily Summary

Daily Weather History Graph

Daily Weather History Graph

Search for Another Location

Airport or City:

Trip Planner

Search our weather history database for the weather conditions in past years. The results will help you decide how hot, cold, wet, or windy it might be!

Date:

Astronomy

Jan. 16, 2014 Rise Set
Actual Time 10:14 AM AKST 6:17 PM AKST
Civil Twilight 9:33 AM AKST 6:59 PM AKST
Nautical Twilight 8:49 AM AKST 7:43 PM AKST
Astronomical Twilight 8:07 AM AKST 8:25 PM AKST
Moon 7:38 PM AKST (1/16) 10:00 AM AKST (1/16)
Length of Visible Light 9h 25m
Length of Day
8h 02m
Full, 100% of the Moon is Illuminated
Jan 16
Full
Jan 23
Last Quarter
Jan 30
New
Feb 6
First Quarter
Feb 14
Full

Hourly Weather History & Observations

Time (AKST) Temp. Windchill Dew Point Humidity Pressure Visibility Wind Dir Wind Speed Gust Speed Precip Events Conditions
12:15 AM 33.8 °F 25.8 °F 30.2 °F 87% 29.12 in 2.0 mi North 10.4 mph 48.3 mph 0.01 in   Overcast
12:41 AM 33.8 °F 22.5 °F 30.2 °F 87% 29.13 in 1.8 mi North 19.6 mph 41.4 mph 0.02 in Snow Light Snow
12:56 AM 33.1 °F 20.1 °F 30.0 °F 89% 29.14 in 1.8 mi North 25.3 mph 43.7 mph 0.03 in Snow Light Snow
1:56 AM 33.1 °F 25.5 °F 30.0 °F 89% 29.16 in 1.5 mi NNE 9.2 mph 50.6 mph 0.02 in Snow Light Snow
2:16 AM 33.8 °F 26.4 °F 28.4 °F 81% 29.14 in 1.2 mi NE 9.2 mph 32.2 mph 0.00 in Snow Light Snow
2:54 AM 33.8 °F 22.8 °F 30.2 °F 87% 29.15 in 2.0 mi North 18.4 mph 27.6 mph 0.01 in Snow Light Snow
2:56 AM 33.1 °F 21.2 °F 30.0 °F 89% 29.16 in 2.0 mi North 20.7 mph 35.7 mph 0.01 in Snow Light Snow
3:21 AM 33.8 °F 23.9 °F 30.2 °F 87% 29.15 in 1.8 mi North 15.0 mph 41.4 mph 0.01 in Snow Light Snow
3:33 AM 33.8 °F 20.3 °F 30.2 °F 87% 29.14 in 2.5 mi NNW 28.8 mph 42.6 mph 0.02 in Snow Light Snow
3:56 AM 33.1 °F 19.6 °F 30.0 °F 89% 29.17 in 2.5 mi NNW 27.6 mph 44.9 mph 0.02 in Snow Light Snow
4:56 AM 33.1 °F 19.6 °F 28.9 °F 85% 29.17 in 3.0 mi North 27.6 mph 39.1 mph 0.01 in   Overcast
5:02 AM 33.8 °F 21.9 °F 28.4 °F 81% 29.17 in 2.5 mi North 21.9 mph 36.8 mph 0.00 in   Overcast
5:16 AM 33.8 °F 21.0 °F 28.4 °F 81% 29.17 in 5.0 mi NNW 25.3 mph 41.4 mph 0.00 in   Overcast
5:56 AM 33.1 °F 22.6 °F 28.0 °F 82% 29.21 in 6.0 mi NNW 16.1 mph 47.2 mph 0.00 in Rain Light Rain
6:23 AM 33.8 °F 23.9 °F 28.4 °F 81% 29.20 in 6.0 mi North 15.0 mph 36.8 mph 0.00 in Rain Light Rain
6:49 AM 33.8 °F 20.5 °F 28.4 °F 81% 29.19 in 4.0 mi NNW 27.6 mph 42.6 mph 0.00 in Rain Light Rain
6:56 AM 33.1 °F 22.2 °F 28.9 °F 85% 29.22 in 5.0 mi NNW 17.3 mph 34.5 mph 0.00 in Rain Light Rain
7:52 AM 33.8 °F 22.8 °F 28.4 °F 81% 29.20 in 4.0 mi North 18.4 mph 38.0 mph 0.00 in Snow Light Snow
7:56 AM 33.1 °F 20.3 °F 28.9 °F 85% 29.21 in 4.0 mi NNE 24.2 mph 38.0 mph 0.00 in Snow Light Snow
7:57 AM 33.8 °F 23.9 °F 28.4 °F 81% 29.20 in 4.0 mi North 15.0 mph 38.0 mph 0.00 in Snow Light Snow
8:22 AM 33.8 °F 22.2 °F 28.4 °F 81% 29.20 in 7.0 mi NNW 20.7 mph 34.5 mph 0.00 in Snow Light Snow
8:23 AM 33.8 °F 21.9 °F 28.4 °F 81% 29.20 in 7.0 mi NNW 21.9 mph 34.5 mph 0.00 in Snow Light Snow
8:35 AM 33.8 °F 21.6 °F 28.4 °F 81% 29.20 in 5.0 mi NNW 23.0 mph 32.2 mph 0.00 in Snow Light Snow
8:56 AM 33.1 °F 20.9 °F 28.9 °F 85% 29.22 in 5.0 mi NNW 21.9 mph 36.8 mph 0.00 in Snow Light Snow
9:13 AM 33.8 °F 20.8 °F 28.4 °F 81% 29.19 in 2.5 mi North 26.5 mph 41.4 mph 0.00 in Snow Light Snow
9:18 AM 33.8 °F 21.3 °F 28.4 °F 81% 29.19 in 5.0 mi NNW 24.2 mph 41.4 mph 0.00 in Snow Light Snow
9:30 AM 33.8 °F 21.3 °F 28.4 °F 81% 29.20 in 3.0 mi North 24.2 mph 40.3 mph 0.00 in Snow Light Snow
9:33 AM 33.8 °F 20.1 °F 28.4 °F 81% 29.18 in 3.0 mi NNW 29.9 mph 40.3 mph 0.00 in Snow Light Snow
9:39 AM 32.0 °F 19.2 °F 28.4 °F 87% 29.20 in 3.0 mi North 23.0 mph 42.6 mph 0.00 in Snow Light Snow
9:43 AM 32.0 °F 17.9 °F 30.2 °F 93% 29.18 in 3.0 mi NNW 28.8 mph 42.6 mph 0.00 in Snow Light Snow
9:56 AM 32.0 °F 17.9 °F 28.9 °F 88% 29.21 in 3.0 mi NNW 28.8 mph 38.0 mph 0.00 in Snow Light Snow
10:02 AM 32.0 °F 19.2 °F 28.4 °F 87% 29.20 in 2.5 mi North 23.0 mph 40.3 mph 0.00 in Snow Light Snow
10:08 AM 32.0 °F 20.1 °F 28.4 °F 87% 29.20 in 3.0 mi NNW 19.6 mph 40.3 mph 0.00 in Snow Light Snow
10:56 AM 33.1 °F 23.9 °F 28.0 °F 82% 29.24 in 3.0 mi NNE 12.7 mph 32.2 mph N/A Snow Light Snow
11:02 AM 32.0 °F 19.5 °F 28.4 °F 87% 29.21 in 3.0 mi North 21.9 mph 38.0 mph N/A Snow Light Snow
11:56 AM 33.1 °F 23.0 °F 30.0 °F 89% 29.22 in 3.0 mi NNW 15.0 mph 38.0 mph N/A Snow Light Snow
11:59 AM 33.8 °F 21.9 °F 28.4 °F 81% 29.19 in 2.0 mi NNW 21.9 mph 41.4 mph 0.00 in Snow Light Snow
12:18 PM 33.8 °F 23.5 °F 28.4 °F 81% 29.19 in 1.5 mi North 16.1 mph 40.3 mph 0.01 in Snow Light Snow
12:40 PM 33.8 °F 23.5 °F 28.4 °F 81% 29.18 in 2.0 mi North 16.1 mph 36.8 mph 0.01 in Snow Light Snow
12:56 PM 33.1 °F 21.2 °F 28.9 °F 85% 29.18 in 1.5 mi NNW 20.7 mph 44.9 mph 0.01 in Snow Light Snow
1:08 PM 33.8 °F 23.5 °F 28.4 °F 81% 29.14 in 1.0 mi NE 16.1 mph 41.4 mph 0.00 in Snow Light Snow
1:28 PM 33.8 °F 21.3 °F 30.2 °F 87% 29.16 in 1.2 mi North 24.2 mph 54.1 mph 0.01 in Snow Light Snow
1:34 PM 33.8 °F 22.5 °F 28.4 °F 81% 29.15 in 0.5 mi North 19.6 mph 36.8 mph 0.01 in Snow Light Snow
1:47 PM 33.8 °F 22.5 °F 28.4 °F 81% 29.12 in 1.0 mi NE 19.6 mph 42.6 mph 0.01 in Snow Light Snow
2:08 PM 33.8 °F 21.0 °F 30.2 °F 87% 29.11 in 2.5 mi North 25.3 mph 43.7 mph 0.00 in Snow Light Snow
2:50 PM 33.8 °F 21.3 °F 30.2 °F 87% 29.07 in 1.5 mi NNW 24.2 mph 38.0 mph 0.01 in Snow Light Snow
2:56 PM 33.1 °F 20.6 °F 30.0 °F 89% 29.08 in 0.8 mi NNE 23.0 mph 41.4 mph 0.01 in Snow Light Snow
3:56 PM 33.1 °F 19.1 °F 30.0 °F 89% 29.02 in 0.5 mi NNW 29.9 mph 44.9 mph 0.01 in Fog , Snow Light Snow
4:40 PM 33.8 °F 21.6 °F 30.2 °F 87% 28.97 in 0.5 mi North 23.0 mph 49.5 mph 0.02 in Snow Snow
4:56 PM 33.1 °F 19.8 °F 30.9 °F 92% 28.96 in 0.5 mi NNW 26.5 mph 46.0 mph 0.03 in Fog , Snow Snow
5:09 PM 33.8 °F 21.6 °F 30.2 °F 87% 28.94 in 0.5 mi NE 23.0 mph 49.5 mph 0.01 in Fog , Snow Snow
5:30 PM 33.8 °F 21.0 °F 30.2 °F 87% 28.92 in 0.2 mi NNE 25.3 mph 61.0 mph 0.02 in Fog , Snow Snow
5:56 PM 33.1 °F 20.3 °F 30.9 °F 92% 28.93 in 0.2 mi NNW 24.2 mph 59.8 mph 0.04 in Fog , Snow Snow
6:56 PM 33.1 °F 18.9 °F 30.9 °F 92% 28.87 in 0.8 mi NNW 31.1 mph 51.8 mph 0.06 in Snow Light Snow
7:56 PM 33.1 °F 19.8 °F 30.9 °F 92% 28.84 in 0.8 mi NNW 26.5 mph 59.8 mph 0.04 in Snow Light Snow
8:14 PM 33.8 °F 20.8 °F 30.2 °F 87% 28.81 in 1.0 mi North 26.5 mph 44.9 mph 0.01 in Snow Light Snow
8:24 PM 33.8 °F 22.2 °F 30.2 °F 87% 28.80 in 1.5 mi North 20.7 mph 43.7 mph 0.02 in Snow Light Snow
8:56 PM 33.1 °F 17.6 °F 32.0 °F 96% 28.76 in 1.5 mi NNW 38.0 mph 43.7 mph 0.03 in Snow Light Snow
9:44 PM 33.8 °F 20.1 °F 32.0 °F 93% 28.74 in 1.8 mi NNW 29.9 mph 39.1 mph 0.01 in Snow Light Snow
9:56 PM 34.0 °F 21.0 °F 32.0 °F 92% 28.75 in 1.8 mi NNW 26.5 mph 38.0 mph 0.01 in   Overcast
10:15 PM 33.8 °F 19.4 °F 32.0 °F 93% 28.72 in 2.0 mi NNW 33.4 mph 42.6 mph 0.00 in   Overcast
10:34 PM 33.8 °F 19.9 °F 32.0 °F 93% 28.71 in 1.8 mi NNW 31.1 mph 36.8 mph 0.02 in   Overcast
10:48 PM 33.8 °F 21.9 °F 32.0 °F 93% 28.70 in 3.0 mi NNW 21.9 mph 34.5 mph 0.02 in Rain Light Rain
10:56 PM 34.0 °F 21.0 °F 32.0 °F 92% 28.71 in 3.0 mi NW 26.5 mph 36.8 mph 0.02 in Rain Light Rain
11:27 PM 35.6 °F 23.2 °F 32.0 °F 87% 28.67 in 3.0 mi NNW 26.5 mph 36.8 mph 0.01 in Rain Light Rain
11:34 PM 35.6 °F 23.2 °F 32.0 °F 87% 28.66 in 2.5 mi NW 26.5 mph 36.8 mph 0.01 in Rain Light Rain
11:56 PM 35.1 °F 23.3 °F 32.0 °F 89% 28.67 in 2.5 mi NW 23.0 mph 35.7 mph 0.02 in Rain Light Rain